FENGYUN 1C DEB, 31000

Orbit data source: Space-Track

FENGYUN 1C DEB, 31000 is space debris in SSO originally from a launch on Mon, 10 May 1999 UTC launched from the Taiyaun Space Center, China (TSC). Fengyun 1C debris stems from the Chinese weather satellite Fengyun-1C, which was intentionally destroyed by a Chinese anti-satellite missile in 2007. This event dramatically increased the amount of space debris, with thousands of trackable fragments posing hazards to satellites and human spaceflight. The Fengyun 1C debris cloud has become a focal point in discussions about space sustainability and the need for international regulations to prevent the creation of new debris.

Loading next visibility...
Identifier
31000, 1999-025BCS
Orbit
SSO
Country
Flag of CNCN / PRC
Related business
Manufacturer
Unknown
Mission
Spacecraft
Bus & Motor
Unknown
Mass
Unknown
Launch date (UTC)
1999-05-10 (27 years ago)
Launch vehicle
Unknown
Launch site
Taiyaun Space Center, China (TSC)
Object type
Payload
Rocket body
Debris
Shape & HBR
Unknown shape, 0.1 m
Radar Cross Section
Small (<0.1 m²)

Expand to show TLE details & history
Last TLE update: 4 days ago

TLE from 4 days ago
0 FENGYUN 1C DEB
1 31000U 99025BCS 26058.51504948  .00001093  00000-0  56539-3 0  9990
2 31000  97.5602  79.9961 0163913 201.0589 315.2994 14.09850496710382
Epoch: 2026-02-27T12:21Z
TLE epoch observation values (Epoch: 2026-02-27T12:21:40.275Z)
Latitude
24.7787°
Longitude
-79.27841°
Altitude
779.537 km
Speed
7.509 km/s
True Right ascension
17h 33m 57s
True Declination
24° 38' 55"
Sunlit
Object was in daylight at epoch
Visualization orbit readout
Latitude
Unknown
Longitude
Unknown
Altitude
Unknown
Speed
Unknown
Apparent Right ascension
Unknown
Apparent Declination
Unknown
Sunlit
N/A
Visualization observer readout
Local Sidereal Time
14:43:16
Azimuth
Unknown
Elevation
Unknown
Doppler factor
Unknown
Orbital elements
Apogee altitude
975.596 km
Perigee altitude
738.41 km
Semi-major axis
7,235.14 km
Eccentricity
0.01639
Inclination
97.5602°
RAAN
79.9961°
Arg. of periapsis
201.0589°
True anomaly
313.95881°
Mean anomaly
315.2994°
Eccentric anomaly
314.63106°
Mean motion
3.52673 °/min
Orbital period
102.08 mins
BSTAR
0.00056539
Loading maneuver chart data...
Computing Atmospheric mass density...

Documentation

Showing up to 5 results
|